Regional Weather Roundup
Issued by NWS

Home | Current Version | Previous Version | Graphics & Text | Print | Product List | Glossary On
Versions: 1 2 3 4 5 6 7 8 9 10 11 12 13 14 15 16 17 18 19 20 21 22 23 24 25 26 27 28 29 30 31 32 33 34 35 36 37 38 39 40 41 42 43 44 45 46 47 48 49 50
000
ASUS43 KMPX 170510
RWRMN
WEATHER ROUNDUP FOR MINNESOTA
NATIONAL WEATHER SERVICE TWIN CITIES/CHANHASSEN MN
1200 AM CDT WED SEP 17 2014


NOTE: "FAIR" INDICATES FEW OR NO CLOUDS BELOW 12,000 FEET WITH NO
SIGNIFICANT WEATHER AND/OR OBSTRUCTIONS TO VISIBILITY. N/A MEANS
CURRENT SKY AND/OR WEATHER CONDITIONS ARE NOT AVAILABLE.

MNZ060>063-068>070-170600-
   Twin Cities Metro

CITY           SKY/WX    TMP DP  RH WIND       PRES   REMARKS
TWIN CITIES    MOCLDY    57  45  64 SE5       30.00F
ST PAUL        CLOUDY    54  49  83 SE3       30.01F
CRYSTAL        CLOUDY    56  49  77 CALM      29.99F
BLAINE         CLOUDY    55  48  76 CALM      30.00F
LAKEVILLE      CLOUDY    52  48  87 CALM      30.01F
EDEN PRAIRIE   CLOUDY    57  48  72 SE3       29.99F
SOUTH ST PAUL  CLOUDY    55  49  81 CALM      30.01S
LAKE ELMO      FAIR      45  45 100 CALM      30.02F
$$
MNZ001>005-007-008-013>017-022>024-027-028-170600-
   Northwest Minnesota

CITY           SKY/WX    TMP DP  RH WIND       PRES   REMARKS
BEMIDJI        CLEAR     49  40  72 S6        29.94F
HALLOCK        CLEAR     50  43  76 SW8       29.88F
ROSEAU         PTCLDY    54  45  71 SW9       29.88F
WARROAD        MOCLDY    54  46  76 SW6       29.88F
THIEF RVR FALL CLEAR     50  41  71 S8        29.92F
CROOKSTON      CLEAR     54  45  71 S8        29.92F
FOSSTON        CLEAR     45  39  81 S6        29.95S
DETROIT LAKES  CLEAR     54  46  76 SE6       29.96F
MOORHEAD       CLEAR     55  48  76 SE7       29.92F
PARK RAPIDS    CLEAR     50  42  74 SE6       29.96F
MAHNOMEN       FAIR      50  43  77 SE6       29.94F
$$
MNZ006-009>011-018-025>026-170600-
   North Central Minnesota

CITY           SKY/WX    TMP DP  RH WIND       PRES   REMARKS
BAUDETTE       CLOUDY    49  46  90 SW6       29.88F
FLAG ISLAND    CLOUDY    57  54  88 S6        29.84F
INTL FALLS     CLOUDY    52  48  86 S3        29.88F
WASKISH        PTCLDY    55  45  67 CALM      29.92S
BIG FORK       PTCLDY    46  43  87 SW2       29.94F
LONGVILLE      CLEAR     45  43  93 CALM      29.96F
GRAND RAPIDS   PTCLDY    54  41  62 SW7       29.97S
CRANE LAKE     CLOUDY    48  48 100 CALM      29.92F
ORR            MOCLDY    54  45  71 S3        29.90F
COOK           MOCLDY    55  45  67 SW7       29.94S
WALKER         FAIR      52  42  69 S5        29.96F
$$
MNZ012-019>021-037-170600-
   Northeast Minnesota

CITY           SKY/WX    TMP DP  RH WIND       PRES   REMARKS
DULUTH         PTCLDY    54  42  64 SW12      29.97F
ELY            MOCLDY    52  46  82 S3        29.94F
HIBBING        CLOUDY    51  43  74 CALM      29.96F
EVELETH        MOCLDY    52  43  71 SW8       29.97S
DULUTH HARBOR  PTCLDY    54  46  76 SW10      29.98S
TWO HARBORS    CLOUDY    54  43  66 W6        29.95S
SILVER BAY     MOCLDY    50  48  93 NE3       29.96S
GRAND MARAIS     N/A     49  44  83 NE9       29.99F
G MARAIS ARPRT CLOUDY    43  39  87 E5        29.98F
$$
MNZ029>031-032-039>041-046>048-054>057-064-170600-
   West Central Minnesota

CITY           SKY/WX    TMP DP  RH WIND       PRES   REMARKS
FERGUS FALLS   CLEAR     55  45  67 SE7       29.94F
WHEATON        PTCLDY    52  48  87 SE9       29.94F
MORRIS         PTCLDY    54  48  82 SE6       29.94F
ALEXANDRIA     CLEAR     52  46  80 SE6       29.97F
ELBOW LAKE     FAIR      52  46  80 SE5       29.94F
WADENA         CLOUDY    50  45  81 CALM      29.97S
GLENWOOD       CLEAR     50  46  87 SE6       29.97F
APPLETON       MOCLDY    63  48  59 S8        29.94F
BENSON         MOCLDY    57  50  77 S3        29.95S
ORTONVILLE     CLEAR     57  48  72 SE5       29.93F
MADISON        MOCLDY    63  52  67 SE7       29.95F
WILLMAR        MOCLDY    59  50  72 CALM      29.98F
$$
MNZ033>034-036-042>043-049>051-058-059-170600-
   Central Minnesota

CITY           SKY/WX    TMP DP  RH WIND       PRES   REMARKS
ST CLOUD       PTCLDY    55  47  74 SE3       29.99S
SAUK CENTRE    FAIR      47  46  93 SE3       29.97F
PAYNESVILLE    MOCLDY    54  47  79 E3        29.98S
AITKIN         CLEAR     46  41  81 CALM      29.97F
PINE RIVER     CLEAR     43  39  87 CALM      30.01F
BRAINERD       CLOUDY    46  44  93 CALM      29.99S
STAPLES        CLOUDY    48  45  87 CALM      29.98S
LONG PRAIRIE   FAIR      50  45  81 CALM      29.98S
LITTLE FALLS   CLEAR     52  45  76 CALM      29.98F
LITCHFIELD     CLOUDY    61  52  72 CALM      29.98F
BUFFALO        CLOUDY    56  47  71 CALM      30.00F
MAPLE LAKE     CLOUDY    56  51  84 CALM      30.00S
$$
MNZ037-044-045-052-053-170600-
   East Central Minnesota

CITY           SKY/WX    TMP DP  RH WIND       PRES   REMARKS
PRINCETON      CLOUDY    54  48  82 E2        30.00F
MORA           CLEAR     43  41  93 CALM      30.01F
CAMBRIDGE      PTCLDY    52  43  71 CALM      29.98F
RUSH CITY      MOCLDY    43  41  95 CALM      30.01S
MOOSE LAKE     CLEAR     43  41  93 CALM      29.98F FOG
HINCKLEY       FAIR      41  41 100 CALM      30.00F
CLOQUET        PTCLDY    52  43  71 SW6       29.98F
MCGREGOR       CLEAR     48  43  81 CALM      29.99S
$$
MNZ071>073-080-081-089-090-097-098-170600-
   Southwest Minnesota

CITY           SKY/WX    TMP DP  RH WIND       PRES   REMARKS
MONTEVIDEO     CLOUDY    61  52  72 S5        29.97F
GRANITE FALLS  CLOUDY    59  51  73 SE5       29.98F
CANBY          CLOUDY    59  51  75 SE5       29.95F
MARSHALL       CLOUDY    61  48  63 S9        29.95F
REDWOOD FALLS  CLOUDY    61  50  67 S8        29.97F
OLIVIA         CLOUDY    59  50  72 SE3       29.97F
PIPESTONE      CLOUDY    59  48  67 S9        29.97F
WINDOM         CLOUDY    57  50  77 SE6       29.99F
WORTHINGTON    CLOUDY    57  46  67 S9        30.00S
JACKSON        CLOUDY    54  46  76 S7        30.00F
TRACY          CLOUDY    59  50  72 S7        29.98S
SLAYTON        CLOUDY    57  49  76 CALM      29.99S
$$
MNZ065>067-074>077-082>085-091>093-170600-
   South Central Minnesota

CITY           SKY/WX    TMP DP  RH WIND       PRES   REMARKS
MANKATO        CLOUDY    57  45  62 S6        30.01S
NEW ULM        CLOUDY    57  52  82 S5        29.99F
ST JAMES       MOCLDY    55  50  82 SE3       30.01F
FAIRMONT       MOCLDY    55  45  67 S8        30.00F
GLENCOE        CLOUDY    59  47  65 CALM      29.99F
FARIBAULT      CLOUDY    57  45  62 S5        30.02S
OWATONNA       CLOUDY    55  46  71 S6        30.02S
WASECA         CLOUDY    54  43  66 S5        30.03S
ALBERT LEA     CLEAR     54  46  76 S3        30.03S
$$
MNZ078>079-086>088-094>096-170600-
   Southeast Minnesota

CITY           SKY/WX    TMP DP  RH WIND       PRES   REMARKS
ROCHESTER      CLEAR     47  43  86 S5        30.04F
RED WING       CLEAR     46  45  93 CALM      30.02S
STANTON        CLOUDY    51  46  84 CALM      30.00F
DODGE CENTER   MOCLDY    50  46  87 S6        30.03S
WINONA         CLEAR     48  46  93 CALM      30.05S
AUSTIN         CLEAR     46  43  87 S3        30.03S
PRESTON        CLEAR     49  46  92 S5        30.04F
$$
ABBREVIATIONS USED IN REMARKS
   TC - TEMPERATURES IN CELSIUS
  WCI - WIND CHILL INDEX
   HX - HEAT INDEX
  VSB - VISIBILITY
$$



USA.gov is the U.S. government's official web portal to all federal, state and local government web resources and services.